Theta_e
348 341 346 350 344 351 350 350 352 350 350 349 351 350 351 351 350 349 348 348 349 347 349 350 350 351 349 350 349 349 348 346 347 346 346 347 348 349 346 343 342 344 343
345 343 349 350 347 351 352 351 352 350 348 349 351 348 348 348 349 348 347 347 348 348 348 349 349 350 348 348 348 348 345 345 342 343 344 343 343 345 347 342 343 345 345
346 343 350 349 348 350 350 349 349 347 345 346 347 347 344 345 346 347 347 347 349 348 344 347 347 348 347 347 348 347 347 343 342 342 343 343 341 343 344 343 345 345 345
345 342 347 351 349 350 349 349 346 343 343 344 345 344 340 341 345 347 346 347 346 345 346 341 345 346 346 347 346 346 345 344 342 341 342 345 345 346 346 342 343 344 344
342 339 344 352 349 349 349 348 346 344 342 340 340 340 339 343 344 342 344 344 344 345 345 342 342 345 344 346 344 345 344 345 345 343 342 343 345 346 342 341 344 341 341
340 338 341 350 347 348 347 348 346 345 343 339 338 338 338 340 340 340 343 344 342 341 343 345 341 344 343 345 345 344 344 345 343 342 341 340 342 345 344 341 341 341 342
341 337 337 343 349 349 350 348 345 343 341 339 339 337 337 338 338 336 338 340 340 340 340 341 343 343 343 344 345 344 344 343 342 340 340 340 341 343 344 341 340 341 341
342 341 335 340 342 345 349 348 345 342 340 340 339 337 336 336 337 335 334 336 337 338 338 339 340 343 341 343 343 343 342 340 338 336 335 336 338 341 340 341 340 340 340
343 344 342 343 343 343 346 348 345 343 340 339 338 337 336 335 334 334 333 332 333 334 335 336 340 342 342 340 343 344 341 337 335 334 334 337 339 340 339 337 340 340 340
345 346 345 345 345 345 345 345 345 343 342 338 337 337 336 334 333 333 332 331 330 331 331 333 338 340 340 341 342 343 341 336 334 333 332 334 335 335 337 338 339 340 340
346 347 346 346 346 344 343 342 342 341 342 338 337 336 335 331 328 330 328 328 328 328 328 327 328 333 337 338 340 339 339 337 335 333 332 331 332 331 333 335 339 339 340
348 348 347 346 346 344 343 341 339 341 341 337 333 332 332 327 321 324 322 325 326 325 323 319 318 321 329 336 338 335 336 337 334 334 333 333 331 330 331 333 333 334 336
345 348 347 347 346 344 342 341 339 341 340 337 330 326 325 323 319 322 321 317 318 320 316 317 315 315 317 328 330 329 332 334 333 333 331 327 327 330 330 331 332 333 334
329 342 346 349 347 344 343 341 339 341 340 339 332 324 319 316 317 320 319 311 309 309 309 311 310 312 313 315 321 321 324 327 327 326 323 320 326 329 329 329 330 331 333
316 320 330 344 347 346 344 342 340 340 340 339 336 329 321 314 314 318 319 315 309 308 309 308 308 307 310 309 310 312 316 318 320 319 316 313 319 326 325 324 325 326 327
311 313 319 326 336 345 345 343 342 341 341 341 339 333 324 318 314 317 319 318 313 310 309 308 308 306 307 306 306 307 308 310 312 313 311 308 307 312 318 317 319 320 322
309 311 312 317 331 344 344 343 341 340 340 340 339 336 329 321 315 315 317 317 316 312 310 309 308 307 306 306 306 306 306 306 307 307 306 306 306 306 306 306 311 315 315
310 310 310 310 313 318 330 337 339 340 339 338 338 336 331 324 318 317 317 316 315 313 311 310 308 308 307 306 306 305 305 305 305 305 305 305 305 305 305 303 303 304 310
309 309 310 310 310 311 314 314 323 329 331 334 336 336 333 328 320 318 318 317 315 313 312 310 309 308 307 307 306 306 305 305 305 305 305 305 305 304 304 303 304 304 306
307 308 309 309 309 309 310 312 313 314 315 320 324 329 330 328 323 320 317 317 315 313 312 310 309 308 308 307 306 306 306 306 305 305 305 305 305 304 304 304 304 304 306
306 306 306 307 309 309 309 309 311 313 314 313 313 316 317 318 320 319 318 315 315 313 312 311 310 308 307 306 305 305 306 306 306 305 305 305 305 304 304 304 304 303 303
304 306 306 306 308 307 307 307 307 308 310 311 312 313 313 313 315 313 314 314 314 313 312 311 310 309 307 306 306 302 301 302 305 305 304 305 305 304 304 304 304 303 303
303 304 304 305 308 306 306 305 305 305 306 307 308 308 310 311 312 313 313 311 312 312 313 312 311 310 308 306 306 305 298 299 299 304 304 304 304 304 304 305 304 304 303
304 303 303 305 307 305 304 304 305 305 305 305 307 308 306 306 306 306 311 312 312 311 310 312 312 311 308 307 304 306 304 303 300 300 303 304 304 304 305 304 304 304 303
304 303 304 304 305 305 304 303 303 303 304 304 306 306 306 306 306 305 307 310 311 312 311 311 310 310 310 307 307 305 303 302 301 298 299 300 302 303 304 304 304 303 303
304 303 303 304 304 303 303 303 303 303 304 304 305 308 306 306 306 307 309 309 308 310 311 310 310 310 310 308 308 307 306 302 299 299 295 296 299 302 303 303 303 303 302
Wind_Speed
18 18 16 15 15 14 14 13 14 12 11 11 12 11 11 10 9 10 10 9 10 11 12 11 11 11 11 12 13 14 14 15 15 15 15 16 15 16 15 15 15 15 14
23 21 18 16 16 15 15 13 12 11 10 10 10 9 9 8 9 8 10 9 8 9 11 11 11 11 11 12 13 14 15 16 15 15 15 15 14 14 13 13 14 13 13
23 23 18 17 16 15 14 13 12 10 9 8 8 7 7 7 8 9 10 8 8 7 9 10 11 11 11 13 12 13 14 14 15 14 13 13 12 11 11 11 11 12 11
24 23 20 17 16 15 14 13 11 10 10 9 8 7 7 7 8 7 10 7 7 5 7 9 10 11 12 12 12 10 11 13 13 12 11 11 10 9 9 8 9 9 9
23 23 20 19 17 16 14 12 11 10 10 10 8 8 8 9 9 8 10 9 8 7 7 7 9 10 12 12 10 10 12 14 12 11 10 9 10 8 7 7 8 7 8
21 20 19 17 16 16 14 13 11 10 10 10 9 8 8 8 7 7 9 9 8 6 6 7 8 9 10 10 11 12 14 14 13 12 10 8 8 6 6 6 6 6 6
22 20 18 17 16 16 15 13 11 10 10 9 9 8 8 7 7 6 7 8 8 6 5 4 7 10 9 10 11 12 12 12 11 11 10 7 6 5 5 4 4 4 4
21 21 20 18 16 17 18 15 13 11 10 10 9 8 8 7 6 6 5 6 7 8 7 6 5 7 8 10 10 11 10 10 9 8 7 4 3 3 1 2 3 4 4
22 23 22 20 17 16 16 16 14 13 12 11 10 9 8 7 6 6 5 5 5 6 7 7 7 10 7 9 9 11 9 9 8 5 3 5 7 3 2 2 3 3 4
25 25 25 23 20 19 17 15 15 15 14 13 12 10 9 7 6 6 5 5 5 5 5 5 7 9 9 11 9 10 10 9 7 6 5 4 2 2 5 3 2 4 5
25 27 26 25 23 22 19 17 16 16 17 15 14 12 10 11 9 9 8 6 5 5 5 5 6 10 12 11 11 9 9 9 9 9 8 7 4 2 1 0 3 3 3
27 30 30 28 27 24 22 20 20 18 19 18 17 15 15 13 11 10 8 6 6 6 6 6 6 7 9 10 10 9 9 10 8 8 9 8 6 3 2 3 4 4 3
15 29 33 32 30 28 27 24 24 23 22 22 20 18 17 15 14 13 11 8 8 8 9 9 9 8 8 9 10 8 10 10 9 8 7 6 6 4 3 2 5 3 3
10 21 23 27 32 32 30 28 27 27 26 25 25 23 21 19 18 17 13 10 10 9 9 9 9 8 8 9 10 10 10 10 9 8 7 5 5 5 3 3 4 4 4
22 13 11 28 32 32 32 32 31 31 31 28 27 27 26 24 23 20 17 14 12 13 11 10 10 10 10 9 10 10 11 10 10 9 7 5 6 6 4 3 3 4 4
30 27 16 10 29 33 33 31 27 25 27 30 30 30 28 26 25 23 20 18 16 15 13 12 11 10 10 10 9 9 10 10 10 9 8 6 6 7 5 5 4 3 4
31 35 33 29 4 16 24 28 28 26 27 30 31 30 30 28 27 25 23 22 19 17 15 14 13 13 12 12 12 11 11 11 11 10 9 8 7 7 6 5 6 5 4
35 37 37 37 32 24 2 13 20 25 26 29 31 30 31 32 29 28 26 26 22 20 19 18 16 15 15 15 14 13 13 13 13 12 11 11 10 8 7 6 4 5 5
32 34 35 36 34 32 23 26 9 6 14 22 29 33 31 33 34 33 31 29 25 24 24 21 20 19 19 18 16 15 16 16 15 14 14 14 12 10 9 7 6 5 6
31 32 32 32 32 31 29 25 22 24 27 10 16 27 30 32 34 36 35 31 28 28 27 25 24 22 21 19 17 18 17 17 20 20 18 17 16 13 11 10 8 8 7
29 30 31 31 27 29 30 29 27 23 20 22 23 13 13 24 30 35 38 36 33 33 32 29 26 25 23 19 13 16 20 20 22 23 21 21 20 17 16 14 11 9 8
25 24 26 28 22 24 26 25 20 17 18 20 21 19 19 18 12 23 33 39 40 36 34 32 31 28 25 22 9 3 3 6 26 27 24 25 24 21 20 18 16 12 11
22 23 21 22 17 20 21 23 23 20 20 23 23 23 22 21 22 19 20 31 40 41 40 38 36 34 31 26 26 9 1 5 2 8 24 24 24 24 22 21 20 17 14
15 17 16 17 14 16 18 20 21 21 22 21 21 21 21 21 22 22 20 17 30 37 40 42 41 40 36 28 22 28 18 6 4 3 7 21 24 24 23 22 21 20 18
11 13 13 12 11 12 14 17 20 22 23 21 18 19 20 24 23 22 21 22 21 25 39 43 40 41 43 30 32 18 30 16 11 3 3 5 19 25 24 22 21 20 19
11 12 12 8 10 12 15 17 21 22 24 24 20 17 21 22 23 23 21 22 23 24 29 39 44 45 43 44 39 35 25 11 13 6 2 6 7 12 23 23 22 20 19
Wind_Direction
189 174 170 169 168 160 152 144 144 142 136 131 123 116 106 105 107 113 109 111 102 101 100 98 92 93 95 99 102 103 103 107 106 104 102 110 112 105 105 103 97 93 89
177 176 173 172 168 165 161 156 149 149 149 144 137 132 125 115 107 110 116 118 114 104 108 106 102 98 101 104 105 106 109 109 109 107 107 110 107 109 106 98 99 98 98
173 175 176 174 172 171 168 170 167 170 170 164 161 153 148 140 139 123 121 124 123 117 114 114 111 106 109 110 111 112 113 112 113 110 109 111 111 112 112 111 104 97 99
174 175 178 176 177 176 174 176 173 174 178 181 179 175 174 163 149 146 132 125 115 122 128 124 119 120 120 120 116 120 139 123 120 116 116 116 114 115 117 110 97 94 97
176 179 180 177 179 177 178 180 180 181 180 180 176 169 161 154 158 167 160 141 142 136 130 137 132 130 133 130 122 124 125 144 125 123 117 121 125 126 116 110 106 97 97
177 182 181 180 179 178 181 183 182 180 178 175 168 163 158 159 162 158 160 164 165 166 153 142 154 142 143 138 130 134 129 139 140 126 117 116 116 121 127 123 113 110 111
178 179 182 185 184 183 185 185 186 182 182 176 171 170 168 168 172 166 166 171 175 172 173 180 160 156 160 151 145 142 146 150 141 127 115 109 106 102 116 124 134 128 126
180 182 184 187 191 194 186 187 189 188 186 187 181 179 177 178 179 178 175 174 181 182 191 183 174 163 175 169 159 161 163 158 137 117 99 93 154 144 138 137 149 156 151
189 187 188 193 198 200 197 192 192 192 190 193 194 190 191 190 187 190 188 186 184 182 193 182 183 173 185 183 176 175 176 168 154 149 136 122 104 119 156 184 159 159 165
196 197 197 198 198 198 200 207 204 197 201 198 200 201 200 202 202 202 205 210 200 195 190 194 183 187 204 207 191 192 199 191 184 200 205 176 137 89 74 66 153 165 180
204 206 205 205 203 204 204 207 213 212 207 206 206 205 204 213 213 210 218 212 220 214 206 196 195 193 203 196 199 202 205 206 202 207 207 206 227 199 249 304 108 119 92
208 209 212 213 211 208 208 210 213 213 215 216 215 212 220 223 223 222 231 224 227 228 218 204 199 197 203 201 210 215 214 216 209 216 212 215 227 190 232 185 232 229 228
256 221 218 218 217 213 212 213 214 216 218 218 219 219 223 227 222 222 233 233 225 221 220 212 211 215 213 209 212 216 211 213 213 207 212 220 210 188 196 187 206 188 186
325 260 245 236 225 221 219 219 219 218 220 220 220 219 219 223 222 225 228 236 230 224 219 220 226 224 219 217 218 223 217 215 212 216 227 222 197 184 195 192 181 192 184
35 20 271 248 241 234 229 227 224 224 225 224 222 221 222 221 223 220 222 227 230 232 232 236 239 236 223 226 227 226 225 220 220 221 226 219 207 193 193 190 187 194 206
34 33 20 266 248 240 237 235 236 237 235 233 232 225 224 228 228 226 225 226 230 233 236 240 241 243 231 227 229 226 230 229 227 225 229 230 222 215 196 200 189 181 162
38 42 43 38 263 240 245 239 241 245 241 240 238 238 238 234 231 230 228 229 232 234 237 237 234 239 237 234 235 238 234 235 231 234 239 234 226 220 223 225 204 194 186
45 43 44 45 50 54 354 252 258 254 253 253 250 249 242 240 237 233 232 234 233 232 233 235 237 242 242 241 245 240 243 241 239 237 238 236 233 232 229 232 227 216 205
43 40 41 39 41 44 43 49 47 269 262 263 258 255 250 246 243 237 238 239 234 233 232 230 230 234 239 243 244 244 248 243 243 241 239 238 236 238 236 234 234 238 223
44 40 38 38 36 35 36 38 45 50 45 15 276 261 252 247 246 245 244 243 238 233 232 230 230 229 236 241 246 252 250 248 246 243 243 240 236 235 236 232 237 242 239
38 36 33 29 30 34 32 30 28 28 32 31 38 24 295 270 257 247 246 245 239 235 238 233 232 230 231 230 234 251 255 254 250 244 242 239 234 235 235 235 236 239 236
36 33 30 26 29 31 27 25 23 19 17 15 16 19 17 10 318 270 255 248 245 237 235 234 230 228 232 225 205 184 303 271 243 241 238 235 237 236 235 236 235 237 236
34 28 24 20 32 24 21 19 17 18 10 3 4 1 1 1 2 353 293 261 249 247 236 235 231 229 226 219 217 197 132 229 316 241 234 231 233 234 235 236 235 236 240
26 24 23 21 32 25 18 12 7 359 349 348 344 347 352 354 352 346 344 313 268 257 250 243 240 233 228 216 212 221 231 204 182 310 243 232 230 232 232 233 230 233 239
6 11 12 9 4 1 3 1 354 347 336 329 323 329 340 345 347 341 335 329 316 280 263 253 242 237 234 222 215 212 223 226 223 161 255 256 229 231 230 231 228 233 230
336 341 344 338 341 343 344 347 346 343 338 327 317 325 334 336 337 339 339 332 324 305 276 260 252 247 237 231 231 224 211 196 207 179 194 233 228 232 226 224 227 228 230